This demonstration page uses our WeatherBlox Daily Observations layout. Learn more.

Left ArrowRight Arrow

41.86663, -103.66717

Hourly Observations for March 9, 2017

Temp ( °F °C ) Dew Point ( °F °C ) Humidity (%) Winds ( mph kmh ) Pressure ( in mb ) Visibility ( mi km ) Precip ( " mm )
12:53 am 00:53 Clear 39 3.9 26 -3.3 60 60 NW 6 9 29.99 1016 10 16 0.00 0.00
1:53 am 01:53 Clear 36 2.2 26 -3.3 67 67 NW 3 6 29.98 1015 10 16 0.00 0.00
2:53 am 02:53 Clear 35 1.7 26 -3.3 70 70 N 7 11 29.98 1015 10 16 0.00 0.00
3:53 am 03:53 Clear 36 2.2 27 -2.8 70 70 E 5 7 29.98 1015 10 16 0.00 0.00
4:53 am 04:53 Clear 37 2.8 26 -3.3 65 65 S 10 17 29.99 1016 10 16 0.00 0.00
5:53 am 05:53 Clear 37 2.8 26 -3.3 65 65 ESE 3 6 30.00 1016 10 16 0.00 0.00
6:53 am 06:53 Sunny 36 2.2 27 -2.8 70 70 E 7 11 30.01 1016 10 16 0.00 0.00
7:53 am 07:53 Partly Cloudy 49 9.4 31 -0.6 50 50 WNW 6 9 29.99 1016 10 16 0.00 0.00
8:53 am 08:53 Sunny 57 13.9 30 -1.1 36 36 W 10 17 29.95 1014 10 16 0.00 0.00
9:53 am 09:53 Sunny 63 17.2 27 -2.8 26 26 W 28 44 29.93 1014 10 16 0.00 0.00
10:53 am 10:53 Sunny 62 16.7 27 -2.8 26 26 WNW 29 46 29.95 1014 10 16 0.00 0.00
11:53 am 11:53 Sunny 66 18.9 28 -2.2 24 24 WNW 29 46 29.97 1015 10 16 0.00 0.00
12:38 pm 12:38 Mostly Sunny 57 14 28 -2 33 33 NNE 24 39 29.91 1013 10 16 0.00 0.00
12:53 pm 12:53 Mostly Sunny 60 15.6 29 -1.7 31 31 NNE 21 33 30.02 1017 10 16 0.00 0.00
1:53 pm 13:53 Sunny 55 12.8 25 -3.9 31 31 NNE 24 39 30.08 1019 10 16 0.00 0.00
2:53 pm 14:53 Sunny 49 9.4 22 -5.6 35 35 NNE 24 39 30.16 1021 10 16 0.00 0.00
3:53 pm 15:53 Sunny 44 6.7 20 -6.7 38 38 NNE 22 35 30.22 1023 10 16 0.00 0.00
4:53 pm 16:53 Sunny 42 5.6 19 -7.2 40 40 NNE 21 33 30.26 1025 10 16 0.00 0.00
5:53 pm 17:53 Sunny 38 3.3 20 -6.7 48 48 NNE 16 26 30.31 1027 10 16 0.00 0.00
6:53 pm 18:53 Clear 34 1.1 20 -6.7 56 56 ENE 16 26 30.38 1029 10 16 0.00 0.00
7:53 pm 19:53 Clear 30 -1.1 21 -6.1 69 69 ENE 12 19 30.39 1029 10 16 0.00 0.00
8:53 pm 20:53 Clear 27 -2.8 21 -6.1 78 78 ENE 13 20 30.41 1030 10 16 0.00 0.00
9:53 pm 21:53 Clear 26 -3.3 20 -6.7 78 78 ESE 7 11 30.42 1030 10 16 0.00 0.00
10:45 pm 22:45 Mostly Cloudy 25 -3.9 20 -6.7 81 81 ESE 5 7 30.59 1036 10 16 0.00 0.00
10:53 pm 22:53 Cloudy 26 -3.3 20 -6.7 78 78 SE 5 7 30.44 1031 10 16 0.00 0.00
11:53 pm 23:53 Cloudy 26 -3.3 21 -6.1 81 81 E 6 9 30.42 1030 10 16 0.00 0.00

Powered by AerisWeather